Weather History for Port Hope, MI

Change the Weather History Date:

Monday, September 3, 2012

  Actual Average Record
Temperature  
Mean Temperature 68 °F -  
Max Temperature 75 °F 73 °F 79 °F (2003)
Min Temperature 60 °F 58 °F 55 °F (2006)
Cooling Degree Days 2    
Growing Degree Days 18 (Base 50)    
Moisture  
Dew Point 63 °F    
Average Humidity 78    
Maximum Humidity 90    
Minimum Humidity 69    
Precipitation  
Precipitation 0.00 in - - ()
Sea Level Pressure  
Sea Level Pressure 29.95 in    
Wind  
Wind Speed 5 mph (East)    
Max Wind Speed 10 mph    
Max Gust Speed -    
Averages and records for this station are not official NWS values.
T = Trace of Precipitation, MM = Missing Value Source: NWS Daily Summary

Daily Weather History Graph

Daily Weather History Graph

Search for Another Location

Airport:

Trip Planner

Search our weather history database for the weather conditions in past years. The results will help you decide how hot, cold, wet, or windy it might be!

Date:

Astronomy

Sep. 03, 2012 Rise Set
Actual Time 6:57 AM EDT 8:02 PM EDT
Civil Twilight 6:27 AM EDT 8:32 PM EDT
Nautical Twilight 5:52 AM EDT 9:07 PM EDT
Astronomical Twilight 5:14 AM EDT 9:44 PM EDT
Moon 9:11 PM EDT (9/3) 10:13 AM EDT (9/3)
Length of Visible Light 14h 04m
Length of Day
13h 05m
Waning Gibbous, 90% of the Moon is Illuminated
Sep 3
Waning Gibbous
Sep 8
Last Quarter
Sep 15
New
Sep 22
First Quarter
Sep 29
Full

Hourly Weather History & Observations

Time (EDT) Temp. Dew Point Humidity Pressure Visibility Wind Dir Wind Speed Gust Speed Precip Events Conditions
12:51 AM 71.1 °F 62.1 °F 73% 29.99 in - East 9.2 mph - N/A   Unknown
1:51 AM 70.0 °F 63.0 °F 78% 29.99 in - East 10.4 mph - N/A   Unknown
2:51 AM 64.0 °F 61.0 °F 90% 29.98 in - Calm Calm - N/A   Unknown
3:51 AM 64.0 °F 61.0 °F 90% 29.98 in - Calm Calm - N/A   Unknown
4:51 AM 64.0 °F 57.9 °F 80% 29.99 in - Calm Calm - N/A   Unknown
5:51 AM 61.0 °F 57.9 °F 90% 29.98 in - Calm Calm - N/A   Unknown
6:51 AM 60.1 °F 57.0 °F 90% 29.98 in - Calm Calm - N/A   Unknown
7:51 AM 62.1 °F 57.9 °F 86% 29.99 in - Calm Calm - N/A   Unknown
8:51 AM 70.0 °F 62.1 °F 76% 29.97 in - SE 3.5 mph - N/A   Unknown
9:51 AM 72.0 °F 64.9 °F 78% 29.96 in - ESE 5.8 mph - N/A   Unknown
10:51 AM 73.0 °F 64.0 °F 73% 29.97 in - East 9.2 mph - N/A   Unknown
11:51 AM 73.9 °F 64.9 °F 73% 29.97 in - East 9.2 mph - N/A   Unknown
12:51 PM 73.9 °F 64.9 °F 73% 29.97 in - East 9.2 mph - N/A   Unknown
1:51 PM 75.9 °F 64.9 °F 69% 29.97 in - ENE 3.5 mph - N/A   Unknown
2:51 PM 73.9 °F 64.9 °F 73% 29.96 in - NE 5.8 mph - N/A   Unknown
3:51 PM 73.9 °F 66.0 °F 76% 29.93 in - East 6.9 mph - N/A   Unknown
4:51 PM 73.9 °F 64.9 °F 73% 29.91 in - East 5.8 mph - N/A   Unknown
5:51 PM 73.9 °F 64.0 °F 71% 29.90 in - ENE 5.8 mph - N/A   Unknown
6:51 PM 73.0 °F 64.0 °F 73% 29.91 in - ENE 8.1 mph - N/A   Unknown
7:51 PM 73.0 °F 64.0 °F 73% 29.91 in - ENE 6.9 mph - N/A   Unknown
8:51 PM 72.0 °F 64.0 °F 76% 29.91 in - ENE 5.8 mph - N/A   Unknown
9:51 PM 73.0 °F 64.0 °F 73% 29.91 in - East 5.8 mph - N/A   Unknown
10:51 PM 72.0 °F 64.9 °F 78% 29.91 in - ESE 4.6 mph - N/A   Unknown
11:51 PM 68.0 °F 64.9 °F 90% 29.91 in - Calm Calm - N/A   Unknown